User: anonymous   Login
Location: Allaines
(49.9632°N, 2.9458°E)
Time: 12:07:20
(UTC+00:00)
Language:

SPOT 5 - Orbit

View from above orbital plane
View from above orbital plane
View from above satellite
View from above satellite

Ground track
Ground track

The orbit data is extracted from the following two-line orbital elements,

1 27421U 02021A   20191.11703100 -.00000011  00000-0  86338-5 0  9993
2 27421  98.2702 261.5917 0135753 138.5913 222.5674 14.52042136947894
Epoch (UTC): 09 July 2020 02:48:31
Eccentricity: 0.0135753
inclination: 98.2702°
perigee height: 622 km
apogee height: 815 km
right ascension of ascending node: 261.5917°
argument of perigee: 138.5913°
revolutions per day: 14.52042136
mean anomaly at epoch: 222.5674°
orbit number at epoch: 94789

The dashed part of the orbit path shows where the satellite is in the earth's shadow,  

DLR